www.pogodaiklimat.ru

Погода и климат >> Архив погоды >> Пакистан >> Саргодха


ПОГОДА в Саргодхе

  • Прогноз погоды в Саргодхе
  • Монитор погоды в Саргодхе

АРХИВ ПОГОДЫ в Саргодхе

Время (UTC), дата Ветер
(напр.,м/с)
 
Видим.   Явления Облачность Т
(С)
Тd
(С)
f
(%)
Тe
(С)
Тes
(С)
Комфортность P
(гПа)
Po
(гПа)
Тmin
(С)
Tmax
(С)
R
(мм)
R24
(мм)
S
(см)
03 9.07 В 2 10 км ясно +30.5 +25.6 75 +45 +52 опасность
перегрева
989.8 969.2 +29.5
06 9.07 В 3 4000 м дым 4/0
[Ac trans]
+35.0 +26.8 63 +53 +65 опасность
перегрева
990.4 970.1
09 9.07 В 3 4000 м дым 5/0
[Ac trans]
+38.0 +27.9 57 +58 +68 опасность
перегрева
989.3 969.2
12 9.07 ЮВ 3 4000 м дым 6/1 1200 м
[Sc Ac trans]
+37.5 +28.9 62 +61 +63 опасность
перегрева
987.8 967.7 +38.5
15 9.07 В 2 4000 м дым 6/1 1200 м
[Sc Ac trans]
+34.5 +27.7 68 +54 +54 опасность
перегрева
988.8 968.5
18 9.07 СВ 3 4000 м дым 8/3 1200 м
[Sc Ac trans]
+33.0 +26.8 70 +51 +51 опасность
перегрева
990.1 969.6
21 9.07 СВ 3 4000 м дым 6/3 1200 м
[Sc Ac trans]
+31.0 +26.9 79 +48 +48 опасность
перегрева
989.6 969.0
00 10.07 СВ 3 4000 м дым 4/0
[Ac trans]
+29.5 +26.7 85 +46 +46 опасность
перегрева
989.9 969.2
03 10.07 В 3 4000 м дым 4/0
[Ac trans]
+30.5 +27.1 82 +48 +53 опасность
перегрева
991.7 971.0 +28.5
06 10.07 В 2 4000 м мгла 8/3 1200 м
[Sc Ac trans]
+34.0 +27.2 68 +53 +61 опасность
перегрева
991.2 970.8
09 10.07 В 1 4000 м мгла 6/0
[Ac trans]
+37.0 +28.3 61 +58 +71 опасность
перегрева
989.8 969.6
12 10.07 В 2 4000 м мгла 6/0
[Ac trans]
+38.0 +28.7 59 +60 +62 опасность
перегрева
987.9 967.8 +38.6
15 10.07 В 1 4000 м мгла ясно +36.5 +29.2 66 +60 +60 опасность
перегрева
987.7 967.5
18 10.07 штиль 0 4000 м ясно +35.0 +29.0 71 +58 +58 опасность
перегрева
988.8 968.5
21 10.07 штиль 0 4000 м ясно +33.0 +27.6 73 +52 +52 опасность
перегрева
989.4 969.0
00 11.07 штиль 0 4000 м зарница {гроза} 8/4 1050 м
[Cb cap Ac trans]
+31.0 +27.6 82 +50 +50 опасность
перегрева
988.1 967.6
03 11.07 В 2 10 км 10/4 1200 м
[Sc As op]
+29.0 +24.8 78 +41 +42 опасность
перегрева
990.4 969.7 +28.0
06 11.07 штиль 0 4000 м 8/3 1200 м
[Sc Ac trans]
+34.5 +25.5 60 +49 +60 опасность
перегрева
990.9 970.5
09 11.07 В 2 10 км 6/3 1200 м
[Sc Ac trans]
+39.0 +28.3 55 +60 +69 опасность
перегрева
990.3 970.2
12 11.07 В 1 10 км 4/0
[Ac trans]
+39.0 +28.3 55 +60 +63 опасность
перегрева
988.6 968.6 +40.0
15 11.07 В 2 4000 м ясно +35.0 +28.3 68 +56 +56 опасность
перегрева
989.8 969.5
18 11.07 СВ 2 4000 м 4/0
[Ac trans]
+32.5 +26.3 70 +49 +49 опасность
перегрева
990.9 970.4
00 12.07 СВ 1 4000 м 8/1 1200 м
[Sc Ac As]
+30.5 +25.6 75 +45 +45 опасность
перегрева
990.1 969.5
03 12.07 С 2 10 км 6/1 1200 м
[Sc Ac trans]
+32.0 +25.0 67 +46 +50 опасность
перегрева
990.9 970.4 +28.7
06 12.07 штиль 0 10 км 10/5 1200 м
[Sc As op]
+35.5 +28.8 68 +58 +61 опасность
перегрева
993.0 972.7
12 12.07 В 1 4000 м 6/3 1200 м
[Sc Ac trans]
+39.5 +28.9 55 +61 +64 опасность
перегрева
990.3 970.3 +40.0
15 12.07 штиль 0 4000 м 6/3 1200 м
[Sc As op]
+30.0 +27.9 89 +50 +50 опасность
перегрева
991.3 970.6
18 12.07 штиль 0 4000 м 3/0
[Ac trans]
+34.0 +28.8 74 +57 +57 опасность
перегрева
993.0 972.6
21 12.07 В 1 4000 м гроза, ливневой дождь {морось} 10/6 1050 м
[Cb cap As op]
+31.0 +28.3 86 +52 +52 опасность
перегрева
993.6 972.9 0.0
00 13.07 В 1 4000 м сильн. гроза, ливневой дождь 10/6 1050 м
[Cb cap As op]
+25.0 +25.0 100 +36 +36 очень
душно
997.4 976.2 15
03 13.07 В 1 10 км 6/3 1200 м
[Sc Ac trans]
+26.5 +24.4 88 +37 +41 очень
душно
996.1 975.1 +24.5 11
06 13.07 ЮЗ 1 10 км 6/3 1200 м
[Sc Ac trans]
+31.0 +24.6 69 +44 +56 опасность
перегрева
995.3 974.6
21 13.07 В 3 4000 м мгла 8/3 1200 м
[Sc As trans]
+29.0 +24.8 78 +41 +41 опасность
перегрева
993.7 972.9
00 14.07 С 6 4000 м гроза, ливневой дождь 10/5 900 м
[Cb cap As op]
+23.0 +21.5 91 +31 +31 очень
душно
994.0 972.8 14
03 14.07 В 2 4000 м мгла {гроза, дождь} 10/4 1200 м
[Sc As op]
+24.0 +22.5 91 +31 +32 очень
душно
993.4 972.3 +22.5 1
06 14.07 В 1 10 км 6/0
[Ac trans]
+27.5 +24.7 85 +39 +54 опасность
солнечного
удара
993.5 972.6
12 14.07 СВ 1 10 км ясно +32.5 +24.8 64 +46 +51 опасность
перегрева
990.4 969.9 +33.3
18 14.07 СВ 1 4000 м 5/0
[Ac trans]
+29.0 +25.5 81 +43 +43 опасность
перегрева
992.9 972.1
21 14.07 В 1 4000 м 1/0
[Ac trans]
+28.0 +25.9 88 +42 +42 опасность
перегрева
992.4 971.6
00 15.07 СВ 1 4000 м 8/1 1200 м
[Sc Ac As]
+27.0 +25.6 92 +40 +40 очень
душно
991.2 970.3
06 15.07 СВ 2 10 км 3/0
[Ac trans]
+32.0 +25.0 67 +46 +62 опасность
перегрева
991.7 971.1
09 15.07 СВ 2 10 км 3/0
[Ac trans]
+34.5 +26.5 63 +51 +66 опасность
перегрева
991.1 970.7
12 15.07 СВ 1 10 км 4/0
[Ac trans]
+34.5 +27.6 67 +54 +57 опасность
перегрева
989.6 969.3 +35.0
15 15.07 штиль 0 4000 м 6/3 1200 м
[Sc Ac trans]
+32.0 +26.5 73 +49 +49 опасность
перегрева
990.6 970.1
18 15.07 штиль 0 4000 м 6/3 1200 м
[Sc Ac trans]
+30.5 +27.1 82 +48 +48 опасность
перегрева
992.6 971.9
21 15.07 СВ 1 4000 м 6/3 1200 м
[Sc Ac trans]
+29.0 +26.2 85 +44 +44 опасность
перегрева
993.1 972.3

 

Местоположение метеостанции Саргодха (Пакистан): широта 32.05 долгота 72.67 высота над уровнем моря 187 м.

В архиве по умолчанию представлена погода в Саргодхе за последнюю неделю. Архивные данные за месяц целиком и за предыдущие месяцы, начиная с января 2011 года, Вы можете получить, выбрав интересующий диапазон дат из раскрывающегося списка и нажав кнопку "Ввод!".


*Определитесь, кто Вы:
робот инопланетянин человек

Внимание! Время в таблицах - всемирное. Для получения местного времени необходимо прибавить поправку, которая равна 5 ч.

Смотрите также архив погоды в соседних городах и на ближайших метеорологических станциях:

Погода в Джаухарабаде (Пакистан) (55 км)
Погода в Нур Пур Тал (Пакистан) (75 км)
Погода в Фейсалабаде (Пакистан) (80 км)
Погода в Хафизабаде (Пакистан) (92 км)
Погода в Джанге (Пакистан) (93 км)
Погода в Чаквале (Пакистан) (98 км)
Погода в Тоба Тек Сингх (Пакистан) (121 км)
Погода в Мианвали (Пакистан) (122 км)
Погода в Гуджранвале (Пакистан) (138 км)
Погода в Сиалкот аэропорту (Пакистан) (139 км)

Пояснения к столбцам:

Ветер - указаны скорость ветра в м/с - средняя за 10 мин, порывы в срок и между сроками (в фигурных скобках) и направление, откуда дует ветер: С - северный, СВ - северо-восточный, В - восточный, ЮВ - юго-восточный, Ю - южный, ЮЗ - юго-западный, З - западный, СЗ - северо-западный.
Видимость - горизонтальная дальность видимости в метрах или километрах. При видимости от 1 до 10 км при отсутствии осадков обычно наблюдается дымка, при ухудшении видимости до 1 км и менее - туман. В сухую погоду видимость может ухудшаться дымом, пылью или мглою.
Явления - указаны атмосферные явления, наблюдавшиеся в срок или в последний час перед сроком; фигурными скобками обозначены явления, наблюдавшиеся между сроками (за 1-3 часа до срока); квадратными скобками обозначены град или гололедные отложения с указанием их диаметра в мм.
Облачность - указаны через наклонную черту общая и нижняя облачность в баллах и высота нижней границы облаков в метрах; квадратными скобками обозначены формы облаков: Ci - перистые, Cs - перисто-слоистые, Cc - перисто-кучевые, Ac - высококучевые, As - высокослоистые, Sc - слоисто-кучевые, Ns - слоисто-дождевые, Cu - кучевые, Cb - кучево-дождевые. Подробнее классификацию облаков см. в Атласе облаков (PDF).
T - Температура воздуха - температура, измеренная на высоте 2 м над землей.
Td - Температура точки росы - температура, при понижении до которой содержащийся в воздухе водяной пар достигнет насыщения.
f - Относительная влажность воздуха - влажноcть воздуха, измеренная на высоте 2 м над землей.
Te - Эффективная температура - температура, которую ощущает одетый по сезону человек в тени. Характеристика душности погоды. При расчете учитывается влияние влажности воздуха и скорости ветра на теплоощущения человека.
Tes - Эффективная температура на солнце - температура, которую ощущает человек, с поправкой на солнечный нагрев. Характеристика знойности погоды. Зависит от высоты солнца над горизонтом, облачности и скорости ветра. Ночью, в пасмурную погоду, а также при ветре 12 м/с и более поправка равна нулю.
P - Атмосферное давление - приведенное к уровню моря атмосферное давление.
Po - Атмосферное давление - измеренное на уровне метеостанции атмосферное давление.
Tmin - Минимальная температура - минимум температуры воздуха на высоте 2 м над землей.
Tmax - Максимальная температура - максимум температуры воздуха на высоте 2 м над землей.
R - Количество осадков - Количество выпавших осадков за период времени, мм. При наведении курсора мыши на число - период времени, за который выпало указанное количество осадков.
R24 - Количество осадков - Количество выпавших осадков за 24 часа, мм.
S - Снежный покров - Высота снежного покрова, см. При наведении курсора мыши на число - состояние снежного покрова и степень покрытия местности в баллах.